GBNZA EGJJ-EGHQ

Flight info

Callsign GBNZA
Flight time 0h 46m
Altitude 10000
Route SKERY DCT BOXHE DCT NQY
Aircraft BE36/L-BDFGLORY/S

Departure

Time 2026-05-09 09:48
Airport Jersey Airport (EGJJ)

Arrival

Time 2026-05-09 10:34
Airport Cornwall Airport Newquay (EGHQ)
Time Latitude Longitude Altitude Speed Heading
2026-05-09 09:27 49.20712 -2.18270 278 ft 0 kts
2026-05-09 09:39 49.20714 -2.18270 278 ft 3 kts 353°
2026-05-09 09:40 49.20694 -2.18303 278 ft 7 kts 262°
2026-05-09 09:40 49.20698 -2.18418 278 ft 14 kts 275°
2026-05-09 09:40 49.20734 -2.18502 278 ft 9 kts 272°
2026-05-09 09:40 49.20723 -2.18628 278 ft 15 kts 263°
2026-05-09 09:41 49.20710 -2.18801 278 ft 17 kts 262°
2026-05-09 09:41 49.20694 -2.18986 278 ft 18 kts 263°
2026-05-09 09:41 49.20681 -2.19179 278 ft 19 kts 271°
2026-05-09 09:41 49.20708 -2.19376 278 ft 19 kts 278°
2026-05-09 09:42 49.20692 -2.19581 278 ft 20 kts 255°
2026-05-09 09:42 49.20614 -2.19724 278 ft 16 kts 267°
2026-05-09 09:42 49.20604 -2.19888 278 ft 16 kts 260°
2026-05-09 09:42 49.20525 -2.19939 278 ft 12 kts 216°
2026-05-09 09:43 49.20532 -2.20055 278 ft 12 kts 296°
2026-05-09 09:43 49.20599 -2.20098 278 ft 11 kts 352°
2026-05-09 09:43 49.20626 -2.20095 278 ft 0 kts 89°
2026-05-09 09:47 49.20635 -2.20086 278 ft 7 kts 348°
2026-05-09 09:47 49.20731 -2.20102 277 ft 16 kts
2026-05-09 09:48 49.20765 -2.19946 279 ft 40 kts 83°
2026-05-09 09:48 49.20826 -2.19250 496 ft 74 kts 82°
2026-05-09 09:48 49.20905 -2.18437 951 ft 81 kts 82°
2026-05-09 09:48 49.21046 -2.17614 1411 ft 88 kts 58°
2026-05-09 09:49 49.21675 -2.17206 1785 ft 113 kts 11°
2026-05-09 09:49 49.22441 -2.17512 2219 ft 114 kts 348°
2026-05-09 09:49 49.23149 -2.18136 2581 ft 122 kts 331°
2026-05-09 09:49 49.23793 -2.18935 3024 ft 122 kts 325°
2026-05-09 09:50 49.24434 -2.19807 3475 ft 119 kts 322°
2026-05-09 09:50 49.25065 -2.20664 3832 ft 124 kts 321°
2026-05-09 09:50 49.25660 -2.21584 4219 ft 124 kts 317°
2026-05-09 09:50 49.26257 -2.22563 4538 ft 128 kts 316°
2026-05-09 09:51 49.26905 -2.23502 4837 ft 128 kts 329°
2026-05-09 09:51 49.27642 -2.24341 5007 ft 142 kts 327°
2026-05-09 09:51 49.28470 -2.25341 5019 ft 160 kts 325°
2026-05-09 09:51 49.29367 -2.26464 5018 ft 172 kts 324°
2026-05-09 09:52 49.30307 -2.27653 5016 ft 178 kts 323°
2026-05-09 09:52 49.31273 -2.28879 5014 ft 182 kts 324°
2026-05-09 09:52 49.32252 -2.30118 5015 ft 184 kts 323°
2026-05-09 09:52 49.33241 -2.31369 5015 ft 184 kts 323°
2026-05-09 09:53 49.34230 -2.32620 5015 ft 185 kts 323°
2026-05-09 09:53 49.35214 -2.33865 5015 ft 186 kts 324°
2026-05-09 09:53 49.36227 -2.35146 5013 ft 186 kts 323°
2026-05-09 09:53 49.37226 -2.36412 5013 ft 187 kts 324°
2026-05-09 09:54 49.38217 -2.37667 5010 ft 188 kts 324°
2026-05-09 09:54 49.39227 -2.38947 5011 ft 189 kts 324°
2026-05-09 09:54 49.40239 -2.40229 5012 ft 189 kts 323°
2026-05-09 09:54 49.41247 -2.41510 5011 ft 188 kts 323°
2026-05-09 09:55 49.42255 -2.42790 5010 ft 188 kts 324°
2026-05-09 09:55 49.43264 -2.44072 5008 ft 188 kts 323°
2026-05-09 09:55 49.44274 -2.45355 5010 ft 189 kts 323°
2026-05-09 09:55 49.45287 -2.46644 5009 ft 189 kts 323°
2026-05-09 09:56 49.46299 -2.47932 5010 ft 189 kts 323°
2026-05-09 09:56 49.47312 -2.49222 5009 ft 189 kts 324°
2026-05-09 09:56 49.48328 -2.50516 5007 ft 190 kts 324°
2026-05-09 09:56 49.49342 -2.51808 5085 ft 185 kts 323°
2026-05-09 09:57 49.50313 -2.53051 5240 ft 181 kts 324°
2026-05-09 09:57 49.51282 -2.54281 5359 ft 180 kts 324°
2026-05-09 09:57 49.52239 -2.55508 5483 ft 178 kts 323°
2026-05-09 09:57 49.53188 -2.56720 5608 ft 177 kts 324°
2026-05-09 09:58 49.54133 -2.57926 5727 ft 176 kts 324°
2026-05-09 09:58 49.55075 -2.59131 5860 ft 176 kts 324°
2026-05-09 09:58 49.56018 -2.60336 5988 ft 176 kts 324°
2026-05-09 09:58 49.56946 -2.61523 6115 ft 176 kts 324°
2026-05-09 09:59 49.57884 -2.62725 6244 ft 176 kts 324°
2026-05-09 09:59 49.58823 -2.63927 6375 ft 175 kts 323°
2026-05-09 09:59 49.59759 -2.65128 6499 ft 175 kts 324°
2026-05-09 09:59 49.60694 -2.66327 6621 ft 175 kts 323°
2026-05-09 10:00 49.61625 -2.67522 6741 ft 174 kts 323°
2026-05-09 10:00 49.62556 -2.68717 6863 ft 174 kts 324°
2026-05-09 10:00 49.63487 -2.69914 6994 ft 174 kts 324°
2026-05-09 10:00 49.64419 -2.71112 7114 ft 174 kts 324°
2026-05-09 10:01 49.65350 -2.72309 7239 ft 174 kts 324°
2026-05-09 10:01 49.66282 -2.73507 7364 ft 174 kts 324°
2026-05-09 10:01 49.67210 -2.74703 7490 ft 174 kts 324°
2026-05-09 10:01 49.68148 -2.75908 7540 ft 178 kts 324°
2026-05-09 10:02 49.69115 -2.77150 7545 ft 183 kts 324°
2026-05-09 10:02 49.70100 -2.78419 7549 ft 186 kts 324°
2026-05-09 10:02 49.71095 -2.79705 7557 ft 187 kts 323°
2026-05-09 10:02 49.72096 -2.80997 7552 ft 188 kts 324°
2026-05-09 10:03 49.73097 -2.82295 7622 ft 186 kts 323°
2026-05-09 10:03 49.74074 -2.83558 7745 ft 181 kts 323°
2026-05-09 10:03 49.75035 -2.84802 7865 ft 179 kts 324°
2026-05-09 10:03 49.75989 -2.86036 7992 ft 179 kts 324°
2026-05-09 10:04 49.76947 -2.87272 8052 ft 182 kts 324°
2026-05-09 10:04 49.77927 -2.88536 8059 ft 185 kts 323°
2026-05-09 10:04 49.78922 -2.89826 8059 ft 188 kts 323°
2026-05-09 10:04 49.79911 -2.91107 8060 ft 188 kts 323°
2026-05-09 10:05 49.80911 -2.92408 8062 ft 188 kts 323°
2026-05-09 10:05 49.81917 -2.93710 8062 ft 189 kts 323°
2026-05-09 10:05 49.82926 -2.95021 8063 ft 190 kts 323°
2026-05-09 10:05 49.83934 -2.96332 8063 ft 190 kts 324°
2026-05-09 10:06 49.84949 -2.97653 8067 ft 190 kts 324°
2026-05-09 10:06 49.85966 -2.98977 8066 ft 192 kts 324°
2026-05-09 10:06 49.86988 -3.00306 8068 ft 191 kts 323°
2026-05-09 10:06 49.88004 -3.01630 8068 ft 191 kts 324°
2026-05-09 10:07 49.89022 -3.02953 8071 ft 191 kts 322°
2026-05-09 10:07 49.90035 -3.04272 8070 ft 189 kts 322°
2026-05-09 10:07 49.91040 -3.05588 8069 ft 189 kts 323°
2026-05-09 10:07 49.92046 -3.06904 8068 ft 190 kts 323°
2026-05-09 10:08 49.93060 -3.08224 8071 ft 190 kts 323°
2026-05-09 10:08 49.94070 -3.09543 8070 ft 190 kts 324°
2026-05-09 10:08 49.95083 -3.10868 8070 ft 190 kts 323°
2026-05-09 10:08 49.96093 -3.12189 8071 ft 190 kts 324°
2026-05-09 10:09 49.97102 -3.13509 8073 ft 189 kts 323°
2026-05-09 10:09 49.98107 -3.14827 8071 ft 189 kts 323°
2026-05-09 10:09 49.98773 -3.15698 8072 ft 189 kts 323°
2026-05-09 10:09 50.00072 -3.17532 8069 ft 190 kts 308°
2026-05-09 10:10 50.00500 -3.18722 8070 ft 190 kts 298°
2026-05-09 10:10 50.01311 -3.21166 8076 ft 190 kts 299°
2026-05-09 10:10 50.01933 -3.22990 8077 ft 192 kts 300°
2026-05-09 10:10 50.02562 -3.24840 8078 ft 194 kts 300°
2026-05-09 10:11 50.03186 -3.26673 8074 ft 194 kts 300°
2026-05-09 10:11 50.03819 -3.28541 8075 ft 196 kts 300°
2026-05-09 10:11 50.04453 -3.30411 8076 ft 195 kts 300°
2026-05-09 10:11 50.05092 -3.32296 8075 ft 194 kts 299°
2026-05-09 10:12 50.05719 -3.34148 8077 ft 193 kts 300°
2026-05-09 10:12 50.06133 -3.35374 8075 ft 194 kts 300°
2026-05-09 10:12 50.06761 -3.37234 8075 ft 194 kts 300°
2026-05-09 10:12 50.07592 -3.39691 8075 ft 194 kts 300°
2026-05-09 10:13 50.08222 -3.41560 8078 ft 196 kts 300°
2026-05-09 10:13 50.08653 -3.42833 8075 ft 197 kts 300°
2026-05-09 10:13 50.09291 -3.44727 8075 ft 198 kts 301°
2026-05-09 10:13 50.10138 -3.47242 8077 ft 198 kts 300°
2026-05-09 10:14 50.10563 -3.48502 8082 ft 199 kts 300°
2026-05-09 10:14 50.11204 -3.50410 8079 ft 199 kts 300°
2026-05-09 10:14 50.11844 -3.52313 8078 ft 198 kts 300°
2026-05-09 10:14 50.12480 -3.54209 8080 ft 197 kts 299°
2026-05-09 10:15 50.13113 -3.56091 8080 ft 196 kts 300°
2026-05-09 10:15 50.13746 -3.57982 8080 ft 196 kts 299°
2026-05-09 10:15 50.14375 -3.59854 8073 ft 194 kts 299°
2026-05-09 10:15 50.14994 -3.61707 8071 ft 192 kts 300°
2026-05-09 10:16 50.15611 -3.63551 8068 ft 191 kts 300°
2026-05-09 10:16 50.16105 -3.65483 8066 ft 193 kts 289°
2026-05-09 10:16 50.16527 -3.67482 8071 ft 195 kts 290°
2026-05-09 10:16 50.16967 -3.69494 8067 ft 197 kts 290°
2026-05-09 10:17 50.17410 -3.71523 8067 ft 198 kts 290°
2026-05-09 10:17 50.17851 -3.73561 8071 ft 198 kts 290°
2026-05-09 10:17 50.18290 -3.75597 8073 ft 198 kts 290°
2026-05-09 10:17 50.18731 -3.77637 8078 ft 198 kts 290°
2026-05-09 10:18 50.19173 -3.79667 8075 ft 197 kts 290°
2026-05-09 10:18 50.19604 -3.81681 8076 ft 195 kts 289°
2026-05-09 10:18 50.20030 -3.83683 8077 ft 194 kts 289°
2026-05-09 10:18 50.20457 -3.85674 8074 ft 193 kts 289°
2026-05-09 10:19 50.20883 -3.87655 8075 ft 192 kts 289°
2026-05-09 10:19 50.21307 -3.89632 8073 ft 192 kts 289°
2026-05-09 10:19 50.21730 -3.91605 8073 ft 191 kts 289°
2026-05-09 10:19 50.22153 -3.93578 8073 ft 192 kts 289°
2026-05-09 10:20 50.22576 -3.95552 8073 ft 192 kts 289°
2026-05-09 10:20 50.23000 -3.97534 8072 ft 192 kts 289°
2026-05-09 10:20 50.23423 -3.99511 8072 ft 192 kts 289°
2026-05-09 10:20 50.23847 -4.01493 8071 ft 193 kts 289°
2026-05-09 10:21 50.24269 -4.03479 8071 ft 193 kts 289°
2026-05-09 10:21 50.24689 -4.05465 8070 ft 193 kts 289°
2026-05-09 10:21 50.25110 -4.07454 8070 ft 192 kts 289°
2026-05-09 10:21 50.25530 -4.09435 8070 ft 192 kts 289°
2026-05-09 10:22 50.25952 -4.11421 8015 ft 195 kts 289°
2026-05-09 10:22 50.26392 -4.13489 7767 ft 205 kts 289°
2026-05-09 10:22 50.26839 -4.15603 7532 ft 211 kts 289°
2026-05-09 10:22 50.27301 -4.17798 7289 ft 214 kts 289°
2026-05-09 10:23 50.27769 -4.20021 7046 ft 217 kts 289°
2026-05-09 10:23 50.28244 -4.22269 6803 ft 219 kts 289°
2026-05-09 10:23 50.28722 -4.24537 6560 ft 220 kts 289°
2026-05-09 10:23 50.29198 -4.26803 6311 ft 219 kts 289°
2026-05-09 10:24 50.29674 -4.29068 6052 ft 219 kts 289°
2026-05-09 10:24 50.30149 -4.31333 5795 ft 219 kts 289°
2026-05-09 10:24 50.30627 -4.33610 5540 ft 221 kts 289°
2026-05-09 10:24 50.31108 -4.35904 5287 ft 223 kts 289°
2026-05-09 10:25 50.31591 -4.38205 5037 ft 223 kts 289°
2026-05-09 10:25 50.32072 -4.40510 4787 ft 223 kts 289°
2026-05-09 10:25 50.32552 -4.42814 4527 ft 223 kts 288°
2026-05-09 10:25 50.33032 -4.45116 4271 ft 223 kts 289°
2026-05-09 10:26 50.33513 -4.47418 4060 ft 221 kts 289°
2026-05-09 10:26 50.33979 -4.49672 4060 ft 215 kts 289°
2026-05-09 10:26 50.34440 -4.51878 4075 ft 210 kts 290°
2026-05-09 10:26 50.35001 -4.53964 4049 ft 207 kts 296°
2026-05-09 10:27 50.35596 -4.56013 3988 ft 208 kts 296°
2026-05-09 10:27 50.36198 -4.58063 3921 ft 206 kts 296°
2026-05-09 10:27 50.36803 -4.60116 3860 ft 208 kts 296°
2026-05-09 10:27 50.37410 -4.62164 3861 ft 206 kts 295°
2026-05-09 10:28 50.37949 -4.64253 3829 ft 206 kts 292°
2026-05-09 10:28 50.38476 -4.66347 3758 ft 209 kts 292°
2026-05-09 10:28 50.39042 -4.68455 3721 ft 208 kts 295°
2026-05-09 10:28 50.39673 -4.70490 3730 ft 208 kts 299°
2026-05-09 10:29 50.40348 -4.72496 3666 ft 208 kts 297°
2026-05-09 10:29 50.40994 -4.74517 3619 ft 207 kts 296°
2026-05-09 10:29 50.41571 -4.76591 3572 ft 207 kts 292°
2026-05-09 10:29 50.42104 -4.78673 3549 ft 206 kts 292°
2026-05-09 10:30 50.42639 -4.80782 3428 ft 209 kts 292°
2026-05-09 10:30 50.43124 -4.82890 3406 ft 208 kts 285°
2026-05-09 10:30 50.43218 -4.85161 3174 ft 211 kts 270°
2026-05-09 10:30 50.43388 -4.87335 2974 ft 197 kts 279°
2026-05-09 10:31 50.43626 -4.89470 2580 ft 198 kts 278°
2026-05-09 10:31 50.43863 -4.91577 2268 ft 195 kts 279°
2026-05-09 10:31 50.44190 -4.93647 1912 ft 196 kts 286°
2026-05-09 10:31 50.44566 -4.95664 1602 ft 186 kts 285°
2026-05-09 10:32 50.45063 -4.97432 1443 ft 164 kts 301°
2026-05-09 10:32 50.45577 -4.98852 1459 ft 136 kts 301°
2026-05-09 10:32 50.45992 -5.00041 1418 ft 116 kts 299°
2026-05-09 10:32 50.46328 -5.01075 1291 ft 101 kts 298°
2026-05-09 10:33 50.46460 -5.02071 1234 ft 94 kts 255°
2026-05-09 10:33 50.46065 -5.02807 1081 ft 90 kts 207°
2026-05-09 10:33 50.45503 -5.03125 896 ft 83 kts 156°
2026-05-09 10:33 50.45177 -5.02480 673 ft 75 kts 116°
2026-05-09 10:34 50.44936 -5.01828 484 ft 66 kts 116°
2026-05-09 10:34 50.44525 -5.00713 321 ft 48 kts 117°
2026-05-09 10:34 50.44406 -5.00398 331 ft 16 kts 119°
2026-05-09 10:35 50.44411 -5.00266 330 ft 13 kts 66°
2026-05-09 10:35 50.44447 -5.00132 335 ft 13 kts 68°
2026-05-09 10:35 50.44458 -5.00008 338 ft 7 kts 97°
2026-05-09 10:35 50.44422 -4.99906 339 ft 14 kts 121°
2026-05-09 10:36 50.44394 -4.99787 341 ft 12 kts 72°
2026-05-09 10:36 50.44438 -4.99733 340 ft 9 kts 342°
2026-05-09 10:36 50.44440 -4.99746 339 ft 1 kts 163°
2026-05-09 10:36 50.44438 -4.99745 338 ft 0 kts 155°
2026-05-09 10:50 50.44430 -4.99738 339 ft 6 kts 155°
2026-05-09 10:50 50.44393 -4.99797 338 ft 14 kts 253°
2026-05-09 10:50 50.44379 -4.99901 338 ft 15 kts 257°
2026-05-09 10:50 50.44364 -4.99937 337 ft 0 kts 145°
2026-05-09 10:52 50.44359 -4.99934 337 ft 5 kts 173°
2026-05-09 10:53 50.44345 -5.00003 337 ft 12 kts 261°
2026-05-09 10:53 50.44289 -5.00086 336 ft 13 kts 141°
2026-05-09 10:53 50.44183 -4.99807 335 ft 65 kts 120°
2026-05-09 10:53 50.43907 -4.99024 559 ft 91 kts 113°
2026-05-09 10:54 50.43621 -4.98179 1035 ft 80 kts 106°
2026-05-09 10:54 50.43788 -4.97314 1403 ft 89 kts 53°
2026-05-09 10:54 50.44408 -4.96895 1573 ft 110 kts 21°
2026-05-09 10:54 50.44922 -4.96761 1662 ft 118 kts 14°
2026-05-09 10:55 50.46055 -4.96867 1797 ft 127 kts
2026-05-09 10:55 50.46920 -4.97037 1903 ft 127 kts
2026-05-09 10:55 50.47861 -4.97195 1855 ft 139 kts
2026-05-09 10:55 50.48801 -4.97242 1927 ft 139 kts
2026-05-09 10:56 50.49802 -4.97198 1832 ft 148 kts 13°
2026-05-09 10:56 50.50853 -4.97329 1815 ft 161 kts 342°
2026-05-09 10:56 50.51602 -4.98660 1730 ft 169 kts 290°
2026-05-09 10:56 50.51606 -5.00369 1613 ft 154 kts 237°
2026-05-09 10:57 50.50809 -5.01347 1346 ft 137 kts 191°
2026-05-09 10:57 50.50020 -5.01357 1248 ft 103 kts 149°
2026-05-09 10:57 50.49653 -5.00921 1166 ft 95 kts 123°
2026-05-09 10:57 50.49416 -4.99685 840 ft 98 kts 79°
2026-05-09 10:58 50.49762 -4.98809 551 ft 94 kts 46°
2026-05-09 10:58 50.50232 -4.98092 316 ft 103 kts 47°
2026-05-09 10:58 50.50692 -4.97429 685 ft 74 kts 45°
2026-05-09 10:58 50.50927 -4.97021 741 ft 78 kts 65°
2026-05-09 10:59 50.50732 -4.95935 1081 ft 100 kts 146°
2026-05-09 10:59 50.50037 -4.96014 1330 ft 109 kts 207°
2026-05-09 10:59 50.49658 -4.96548 1300 ft 110 kts 213°
2026-05-09 10:59 50.48966 -4.97560 1282 ft 93 kts 215°
2026-05-09 11:00 50.48662 -4.98020 1238 ft 90 kts 214°
2026-05-09 11:00 50.48386 -4.98913 1094 ft 103 kts 277°
2026-05-09 11:00 50.48787 -4.99752 803 ft 92 kts 346°
2026-05-09 11:00 50.49306 -4.99617 587 ft 70 kts 54°
2026-05-09 11:01 50.49594 -4.99090 471 ft 61 kts 54°
2026-05-09 11:01 50.49912 -4.98580 333 ft 70 kts 49°
2026-05-09 11:01 50.50213 -4.98105 276 ft 43 kts 44°
2026-05-09 11:01 50.50308 -4.97975 276 ft 2 kts 272°
2026-05-09 11:02 50.50265 -4.98042 276 ft 16 kts 221°
2026-05-09 11:02 50.50260 -4.98113 277 ft 14 kts
2026-05-09 11:02 50.50396 -4.98101 276 ft 25 kts
2026-05-09 11:02 50.50562 -4.98094 277 ft 18 kts 348°
2026-05-09 11:03 50.50659 -4.98212 273 ft 18 kts 316°
2026-05-09 11:03 50.50732 -4.98363 273 ft 14 kts 255°
2026-05-09 11:03 50.50697 -4.98424 266 ft 5 kts 13°
2026-05-09 11:03 50.50702 -4.98423 266 ft 0 kts